VIR128K KJFK-EGCC

Flight info

Callsign VIR128K
Flight time N/A
Altitude 40000
Route MERIT DCT HFD DCT PUT DCT EBONY DCT TUDEP/M081F400 NATT NETKI/N0452F390 DCT BOFUM Q37 MALUD
Aircraft A333/H-SDE3GHIJ2J3J5M1RVWXY/LB2D1

Departure

Time N/A
Airport John F. Kennedy International Airport (KJFK)

Arrival

Time 2026-05-05 20:00
Airport Manchester Airport (EGCC)
Time Latitude Longitude Altitude Speed Heading
2026-05-05 19:26 53.99168 -7.74007 40092 ft 475 kts 108°
2026-05-05 19:26 53.98145 -7.68670 40092 ft 475 kts 108°
2026-05-05 19:26 53.96092 -7.58009 40090 ft 474 kts 108°
2026-05-05 19:27 53.94033 -7.47370 40092 ft 474 kts 108°
2026-05-05 19:27 53.91965 -7.36747 40095 ft 474 kts 108°
2026-05-05 19:28 53.89888 -7.26138 40093 ft 473 kts 108°
2026-05-05 19:28 53.87805 -7.15550 40088 ft 473 kts 109°
2026-05-05 19:29 53.85712 -7.04974 40085 ft 473 kts 109°
2026-05-05 19:29 53.83625 -6.94486 40085 ft 473 kts 109°
2026-05-05 19:30 53.81514 -6.83933 40078 ft 473 kts 109°
2026-05-05 19:30 53.79395 -6.73393 40081 ft 473 kts 109°
2026-05-05 19:31 53.77271 -6.62891 40075 ft 471 kts 109°
2026-05-05 19:31 53.75142 -6.52418 40073 ft 471 kts 109°
2026-05-05 19:32 53.73004 -6.41952 40070 ft 471 kts 109°
2026-05-05 19:32 53.70874 -6.31585 40070 ft 471 kts 109°
2026-05-05 19:33 53.68716 -6.21134 40067 ft 471 kts 109°
2026-05-05 19:33 53.66548 -6.10689 40070 ft 472 kts 109°
2026-05-05 19:34 53.64364 -6.00224 40069 ft 473 kts 110°
2026-05-05 19:35 53.61074 -5.84560 40068 ft 472 kts 110°
2026-05-05 19:35 53.58873 -5.74135 40069 ft 472 kts 109°
2026-05-05 19:36 53.56665 -5.63735 40069 ft 471 kts 109°
2026-05-05 19:36 53.54501 -5.53329 40056 ft 471 kts 105°
2026-05-05 19:36 53.53831 -5.47944 39708 ft 469 kts 96°
2026-05-05 19:37 53.53536 -5.42535 39492 ft 461 kts 94°
2026-05-05 19:37 53.53347 -5.37274 39300 ft 453 kts 92°
2026-05-05 19:37 53.53210 -5.32003 38957 ft 450 kts 91°
2026-05-05 19:37 53.53097 -5.26764 38566 ft 447 kts 91°
2026-05-05 19:38 53.52986 -5.21556 38050 ft 445 kts 91°
2026-05-05 19:38 53.52870 -5.16355 37462 ft 445 kts 92°
2026-05-05 19:38 53.52734 -5.11169 36951 ft 443 kts 92°
2026-05-05 19:38 53.52581 -5.05979 36388 ft 443 kts 92°
2026-05-05 19:39 53.52419 -5.00819 35820 ft 443 kts 92°
2026-05-05 19:39 53.52251 -4.95651 35288 ft 443 kts 92°
2026-05-05 19:39 53.52080 -4.90459 34708 ft 446 kts 92°
2026-05-05 19:39 53.51906 -4.85238 34088 ft 448 kts 92°
2026-05-05 19:40 53.51733 -4.80064 33454 ft 448 kts 92°
2026-05-05 19:40 53.51557 -4.74820 32811 ft 449 kts 92°
2026-05-05 19:40 53.51379 -4.69569 32177 ft 450 kts 92°
2026-05-05 19:40 53.51199 -4.64310 31573 ft 452 kts 92°
2026-05-05 19:41 53.51012 -4.59044 30956 ft 452 kts 92°
2026-05-05 19:41 53.50817 -4.53780 30337 ft 450 kts 92°
2026-05-05 19:41 53.50628 -4.48543 29659 ft 449 kts 92°
2026-05-05 19:41 53.50444 -4.43320 28950 ft 447 kts 92°
2026-05-05 19:42 53.50259 -4.38113 28249 ft 445 kts 92°
2026-05-05 19:42 53.50072 -4.32927 27553 ft 444 kts 93°
2026-05-05 19:42 53.49882 -4.27752 26872 ft 442 kts 93°
2026-05-05 19:42 53.49689 -4.22619 26208 ft 440 kts 93°
2026-05-05 19:43 53.49494 -4.17499 25558 ft 437 kts 93°
2026-05-05 19:43 53.49299 -4.12451 24912 ft 427 kts 93°
2026-05-05 19:43 53.49108 -4.07549 24290 ft 414 kts 94°
2026-05-05 19:43 53.48919 -4.02787 23685 ft 404 kts 94°
2026-05-05 19:44 53.48681 -3.98109 22949 ft 399 kts 99°
2026-05-05 19:44 53.48175 -3.93602 22207 ft 397 kts 99°
2026-05-05 19:44 53.47724 -3.89037 21468 ft 397 kts 100°
2026-05-05 19:44 53.47248 -3.84460 20746 ft 398 kts 100°
2026-05-05 19:45 53.46757 -3.79887 20052 ft 398 kts 101°
2026-05-05 19:45 53.46257 -3.75314 19361 ft 398 kts 101°
2026-05-05 19:45 53.45754 -3.70762 18692 ft 398 kts 101°
2026-05-05 19:45 53.45244 -3.66193 17977 ft 397 kts 101°
2026-05-05 19:46 53.44734 -3.61656 17226 ft 396 kts 101°
2026-05-05 19:46 53.44223 -3.57126 16496 ft 394 kts 101°
2026-05-05 19:46 53.43712 -3.52618 15781 ft 391 kts 101°
2026-05-05 19:46 53.43211 -3.48212 15082 ft 378 kts 101°
2026-05-05 19:47 53.42728 -3.43971 14491 ft 362 kts 101°
2026-05-05 19:47 53.42262 -3.39904 13915 ft 348 kts 101°
2026-05-05 19:47 53.41812 -3.35990 13288 ft 337 kts 101°
2026-05-05 19:47 53.41379 -3.32234 12652 ft 327 kts 101°
2026-05-05 19:48 53.40952 -3.28546 12024 ft 318 kts 101°
2026-05-05 19:48 53.40535 -3.24952 11417 ft 310 kts 101°
2026-05-05 19:48 53.40126 -3.21434 10820 ft 305 kts 101°
2026-05-05 19:48 53.39724 -3.17980 10227 ft 299 kts 100°
2026-05-05 19:49 53.39435 -3.14566 9627 ft 293 kts 99°
2026-05-05 19:49 53.39064 -3.12357 9290 ft 289 kts 111°
2026-05-05 19:49 53.38118 -3.08228 8725 ft 286 kts 111°
2026-05-05 19:49 53.37379 -3.05132 8345 ft 285 kts 111°
2026-05-05 19:50 53.36647 -3.02075 8032 ft 281 kts 111°
2026-05-05 19:50 53.35926 -2.99044 7716 ft 280 kts 111°
2026-05-05 19:50 53.35209 -2.96026 7427 ft 278 kts 111°
2026-05-05 19:50 53.34497 -2.93021 7141 ft 277 kts 111°
2026-05-05 19:51 53.33790 -2.90032 6838 ft 275 kts 111°
2026-05-05 19:51 53.33086 -2.87060 6538 ft 272 kts 111°
2026-05-05 19:51 53.32392 -2.84138 6227 ft 269 kts 111°
2026-05-05 19:51 53.31710 -2.81277 5917 ft 267 kts 111°
2026-05-05 19:52 53.30989 -2.78445 5582 ft 264 kts 119°
2026-05-05 19:52 53.29748 -2.76211 5288 ft 262 kts 144°
2026-05-05 19:52 53.28222 -2.74557 5008 ft 260 kts 149°
2026-05-05 19:52 53.26681 -2.73036 4792 ft 254 kts 149°
2026-05-05 19:53 53.25169 -2.71566 4611 ft 249 kts 150°
2026-05-05 19:53 53.23691 -2.70134 4410 ft 243 kts 150°
2026-05-05 19:53 53.22240 -2.68735 4239 ft 239 kts 150°
2026-05-05 19:53 53.20823 -2.67332 4037 ft 234 kts 143°
2026-05-05 19:54 53.19813 -2.65305 3860 ft 225 kts 112°
2026-05-05 19:54 53.19351 -2.62876 3655 ft 216 kts 87°
2026-05-05 19:54 53.19626 -2.60492 3456 ft 207 kts 64°
2026-05-05 19:54 53.20305 -2.58409 3262 ft 203 kts 50°
2026-05-05 19:55 53.21163 -2.56600 3084 ft 201 kts 45°
2026-05-05 19:55 53.22066 -2.54781 3003 ft 201 kts 46°
2026-05-05 19:55 53.22964 -2.52962 3002 ft 211 kts 47°
2026-05-05 19:55 53.23906 -2.51039 2996 ft 214 kts 47°
2026-05-05 19:56 53.24824 -2.49147 3008 ft 206 kts 47°
2026-05-05 19:56 53.25713 -2.47313 3002 ft 198 kts 47°
2026-05-05 19:56 53.26552 -2.45588 2903 ft 186 kts 46°
2026-05-05 19:56 53.27367 -2.43925 2631 ft 184 kts 46°
2026-05-05 19:57 53.28164 -2.42295 2377 ft 182 kts 46°
2026-05-05 19:57 53.28702 -2.41189 2196 ft 180 kts 46°
2026-05-05 19:57 53.29725 -2.39090 1877 ft 169 kts 46°
2026-05-05 19:57 53.30444 -2.37613 1647 ft 161 kts 46°
2026-05-05 19:58 53.31106 -2.36255 1425 ft 149 kts 47°
2026-05-05 19:58 53.31733 -2.34968 1218 ft 137 kts 47°
2026-05-05 19:58 53.32320 -2.33764 1033 ft 131 kts 49°
2026-05-05 19:58 53.32894 -2.32586 841 ft 131 kts 50°
2026-05-05 19:59 53.33475 -2.31410 662 ft 131 kts 51°
2026-05-05 19:59 53.34054 -2.30244 473 ft 130 kts 52°
2026-05-05 19:59 53.34618 -2.29061 310 ft 130 kts 52°
2026-05-05 19:59 53.35154 -2.27952 238 ft 107 kts 51°
2026-05-05 20:00 53.35498 -2.27238 253 ft 51 kts 51°
2026-05-05 20:00 53.35659 -2.26910 266 ft 29 kts 51°
2026-05-05 20:00 53.35725 -2.26771 272 ft 13 kts 52°
2026-05-05 20:00 53.35804 -2.26685 273 ft 14 kts
2026-05-05 20:01 53.35875 -2.26697 267 ft 9 kts 351°
2026-05-05 20:01 53.35911 -2.26756 259 ft 4 kts 262°
2026-05-05 20:01 53.35902 -2.26819 260 ft 7 kts 250°
2026-05-05 20:01 53.35879 -2.26881 259 ft 0 kts 233°
2026-05-05 20:02 53.35872 -2.26897 261 ft 7 kts 233°
2026-05-05 20:02 53.35836 -2.26985 259 ft 11 kts 239°
2026-05-05 20:03 53.35790 -2.27104 259 ft 13 kts 232°
2026-05-05 20:03 53.35726 -2.27235 259 ft 16 kts 231°
2026-05-05 20:03 53.35660 -2.27371 256 ft 14 kts 231°
2026-05-05 20:03 53.35621 -2.27496 249 ft 12 kts 275°
2026-05-05 20:04 53.35675 -2.27597 250 ft 13 kts 323°
2026-05-05 20:04 53.35766 -2.27649 255 ft 13 kts 358°
2026-05-05 20:04 53.35860 -2.27637 259 ft 14 kts
2026-05-05 20:04 53.35928 -2.27631 259 ft 12 kts 359°
2026-05-05 20:05 53.35981 -2.27630 259 ft 3 kts
2026-05-05 20:05 53.35997 -2.27627 259 ft 0 kts
2026-05-05 20:09 53.36006 -2.27626 256 ft 3 kts
2026-05-05 20:09 53.36038 -2.27620 259 ft 6 kts
2026-05-05 20:09 53.36067 -2.27646 259 ft 4 kts 307°
2026-05-05 20:10 53.36080 -2.27697 259 ft 2 kts 285°
2026-05-05 20:10 53.36082 -2.27710 259 ft 0 kts 287°
2026-05-05 20:11 53.36083 -2.27715 259 ft 3 kts 287°
2026-05-05 20:12 53.36093 -2.27779 259 ft 8 kts 285°
2026-05-05 20:12 53.36115 -2.27896 259 ft 12 kts 296°
2026-05-05 20:12 53.36178 -2.28003 259 ft 14 kts 317°
2026-05-05 20:12 53.36248 -2.28124 259 ft 16 kts 315°
2026-05-05 20:13 53.36329 -2.28260 259 ft 17 kts 314°
2026-05-05 20:13 53.36398 -2.28400 259 ft 15 kts 296°
2026-05-05 20:13 53.36459 -2.28553 259 ft 17 kts 313°
2026-05-05 20:13 53.36484 -2.28597 259 ft 3 kts 313°
2026-05-05 20:14 53.36504 -2.28631 259 ft 6 kts 315°
2026-05-05 20:14 53.36540 -2.28690 259 ft 9 kts 315°
2026-05-05 20:14 53.36590 -2.28772 259 ft 11 kts 321°
2026-05-05 20:14 53.36653 -2.28740 259 ft 11 kts 41°
2026-05-05 20:15 53.36684 -2.28692 259 ft 4 kts 44°
2026-05-05 20:15 53.36707 -2.28690 259 ft 5 kts 342°
2026-05-05 20:15 53.36738 -2.28728 259 ft 4 kts 317°
2026-05-05 20:15 53.36753 -2.28751 259 ft 2 kts 315°
2026-05-05 20:16 53.36758 -2.28760 259 ft 1 kts 315°
2026-05-05 20:16 53.36759 -2.28762 259 ft 0 kts 315°